Location: Rio Negrinho
(26.2394°S, 49.4999°W)
Time: 22:35:40
(UTC+00:00)

Cosmos 1844 - Visible Passes

Search period start: 01 October 2020 00:00
Search period end: 11 October 2020 00:00
Orbit: 824 x 866 km, 70.9° (Epoch: 01 October)

Date Brightness Start Highest point End Pass type
(mag) Time Alt. Az. Time Alt. Az. Time Alt. Az.
01 Oct 6.8 07:04:21 10° ENE 07:05:26 11° E 07:06:30 10° E visible
02 Oct 3.7 08:29:16 10° NNW 08:34:51 68° WSW 08:40:35 10° SSE visible
03 Oct 3.7 08:15:16 10° NNW 08:20:52 71° WSW 08:26:37 10° SSE visible
04 Oct 3.7 08:01:16 10° NNW 08:06:53 74° WSW 08:12:38 10° SSE visible
05 Oct 3.6 07:47:16 10° NNW 07:52:54 77° WSW 07:58:40 10° SSE visible
06 Oct 3.6 07:33:53 13° NNW 07:38:55 80° WSW 07:44:42 10° SSE visible
07 Oct 3.6 07:21:21 24° NNW 07:24:56 83° WSW 07:30:43 10° SSE visible
08 Oct 3.6 07:08:38 38° NNW 07:10:57 86° WSW 07:16:44 10° SSE visible
09 Oct 3.6 06:55:45 58° NNW 06:56:58 89° WSW 07:02:45 10° SSE visible
10 Oct 3.6 06:42:46 84° N 06:42:59 88° ENE 06:48:46 10° SSE visible
